[[{"header":{"parameterUnit":"m.s-1","parameterCategory":1,"la1":30.2991,"la2":30.254,"lo1":-89.0895,"lo2":-89.0444,"dy":0.0017,"dx":0.0017,"nx":28,"ny":28,"refTime":"2025-03-01T09:00:00:Z","depth":0,"parameterNumber":2,"parameterNumberName":"U-component_of_WINDS"},"data":[0,0,0,0,0,0,0,0,0,0,0,0,0,0,0,0,0,0,0,0,0,0,0,0,0,0,0,0,0,0,0,0,0,0,0,0,0,0,0,0,0,0,0,0,0,0,0,0,0,0,0,0,0,0,0,0,0,0,-4.4401,-4.4401,0,-4.4441,-4.4441,-4.4442,-4.4347,-4.4344,-4.4341,-4.4338,-4.438,-4.4384,-4.4388,0,0,0,0,0,0,0,0,0,0,0,0,0,-4.4242,-4.4246,-4.4401,-4.4401,-4.4402,-4.4441,-4.4441,-4.4442,-4.4348,-4.4344,-4.434,-4.4337,-4.4379,-4.4384,-4.4389,0,0,0,0,0,0,0,0,0,0,0,0,0,-4.43,-4.4247,-4.44,-4.4359,-4.4356,-4.4441,-4.4441,-4.4442,-4.4348,-4.4344,-4.4339,-4.4335,-4.4378,-4.4383,-4.4389,-4.4516,0,0,-4.4407,-4.441,0,0,0,0,0,0,0,0,-4.4297,-4.4306,-4.4365,-4.4362,-4.4359,-4.4384,-4.4401,-4.4467,-4.435,-4.4351,-4.4338,-4.4333,-4.4385,-4.439,-4.4408,-4.4518,-4.452,-4.4408,-4.4411,-4.4414,-4.4416,0,0,0,0,0,0,0,-4.4293,-4.4303,-4.4416,-4.4366,-4.4362,-4.4339,-4.4342,-4.4413,-4.4393,-4.4351,-4.4344,-4.435,-4.4383,-4.4403,-4.4408,-4.4521,-4.4408,-4.4413,-4.4416,-4.4419,-4.4738,-4.4742,0,0,0,0,0,0,-4.4294,-4.4301,-4.4415,-4.4418,-4.4316,-4.4345,-4.4349,-4.4381,-4.4392,-4.439,-4.4354,-4.4345,-4.4395,-4.4401,-4.4409,-4.456,-4.4414,-4.4419,-4.4423,-4.4733,-4.4739,-4.4744,0,0,0,0,0,0,-4.4291,-4.4305,-4.4414,-4.4357,-4.4369,-4.4353,-4.4389,-4.4384,-4.4403,-4.4395,-4.4391,-4.4378,-4.4391,-4.4401,-4.449,-4.456,-4.4422,-4.4427,-4.4727,-4.4735,-4.4741,-4.4861,0,0,0,0,0,0,-4.4287,-4.4305,-4.4353,-4.4359,-4.4373,-4.4494,-4.4394,-4.4388,-4.4414,-4.4403,-4.4416,-4.4413,-4.4389,-4.4482,-4.4496,-4.4565,-4.4432,-4.4721,-4.473,-4.4739,-4.4851,-4.4872,-4.489,0,0,0,0,0,-4.4281,-4.4385,-4.4356,-4.437,-4.4432,-4.4498,-4.4506,-4.4475,-4.442,-4.4468,-4.4462,-4.4413,-4.455,-4.4492,-4.4507,-4.4579,-4.4716,-4.4728,-4.4738,-4.4842,-4.4868,-4.4889,0,0,0,0,0,0,-4.4387,-4.4385,-4.4352,-4.4461,-4.4481,-4.4482,-4.4542,-4.4503,-4.4539,-4.4528,-4.4488,-4.4491,-4.4589,-4.4592,-4.4528,-4.4703,-4.4623,-4.4638,-4.4697,-4.4721,-4.474,-4.4738,-4.4437,0,0,0,0,0,-4.4423,-4.4476,-4.4471,-4.4568,-4.4579,-4.4559,-4.4587,-4.4561,-4.458,-4.4588,-4.4589,-4.4609,-4.4656,-4.4689,-4.4732,-4.485,-4.4852,-4.4907,-4.4927,-4.4942,-4.4956,-4.502,-4.5045,-4.478,-4.478,-4.478,0,0,-4.4498,-4.4503,-4.4539,-4.4589,-4.4601,-4.4658,-4.4567,-4.4631,-4.4673,-4.4598,-4.4682,-4.4684,-4.4704,-4.4809,-4.4855,-4.4815,-4.5029,-4.4957,-4.4969,-4.4974,-4.5034,-4.5059,-4.5082,-4.4788,-4.4787,-4.4785,0,0,-4.4663,-4.4672,-4.4754,-4.4768,-4.4787,-4.4773,-4.4793,-4.4801,-4.4799,-4.4883,-4.4828,-4.4877,-4.496,-4.4977,-4.4996,-4.5168,-4.5125,-4.5183,-4.5284,-4.5347,-4.5368,-4.5386,-4.5449,-4.5472,-4.5196,-4.5196,-4.5197,0,-4.4754,-4.4837,-4.4801,-4.4869,-4.4893,-4.4827,-4.4909,-4.4925,-4.4958,-4.4976,-4.493,-4.5032,-4.5041,-4.515,-4.5192,-4.5209,-4.5231,-4.5182,-4.5368,-4.5386,-4.5402,-4.5462,-4.5485,-4.5204,-4.5203,-4.5202,-4.5201,0,-4.4948,-4.5007,-4.507,-4.5104,-4.5135,-4.521,-4.5185,-4.522,-4.5192,-4.5183,-4.527,-4.5278,-4.5322,-4.5345,-4.5318,-4.545,-4.5425,-4.5374,-4.5294,-4.5435,-4.5491,-4.5513,-4.5214,-4.5211,-4.5209,-4.5207,0,0,-4.5183,-4.5195,-4.5219,-4.5234,-4.525,-4.5295,-4.5367,-4.541,-4.5442,-4.5466,-4.5526,-4.5597,-4.5551,-4.5573,-4.5547,-4.5602,-4.5739,-4.5544,-4.5544,-4.5582,-4.5887,-4.5926,-4.5953,-4.5709,-4.5713,-4.5717,-4.5885,0,-4.5348,-4.5472,-4.5441,-4.5564,-4.5618,-4.5556,-4.5619,-4.5636,-4.563,-4.5675,-4.5667,-4.5719,-4.5652,-4.5665,-4.5717,-4.5712,-4.58,-4.5698,-4.5766,-4.5769,-4.5765,-4.5981,-4.6023,-4.6182,-4.5907,-4.591,-4.5913,0,-4.5558,-4.559,-4.5719,-4.5727,-4.5749,-4.5806,-4.5843,-4.5886,-4.5905,-4.5896,-4.5921,-4.5884,-4.5955,-4.5873,-4.5971,-4.5903,-4.5928,-4.593,-4.5935,-4.5942,-4.5851,-4.5996,-4.6232,-4.6257,-4.5946,-4.5943,-4.5941,0,-4.5718,-4.5794,-4.5881,-4.5895,-4.5907,-4.5948,-4.5955,-4.5968,-4.5996,-4.6029,-4.6046,-4.6086,-4.6109,-4.6141,-4.6116,-4.6058,-4.6219,-4.6134,-4.6215,-4.6216,-4.6253,-4.6252,-4.6499,-4.6267,-4.6267,-4.6266,-4.6266,0,-4.5907,-4.5988,-4.5954,-4.6008,-4.6097,-4.606,-4.615,-4.615,-4.6162,-4.6215,-4.6163,-4.6214,-4.6177,-4.6224,-4.6205,-4.629,-4.63,-4.6296,-4.629,-4.6302,-4.6303,-4.632,-4.6309,-4.6273,-4.6271,-4.627,-4.6269,0,-4.6102,-4.6082,-4.6173,-4.6176,-4.6178,-4.6245,-4.6247,-4.6297,-4.6286,-4.6354,-4.6367,-4.6351,-4.6404,-4.6382,-4.6438,-4.6425,-4.6535,-4.6514,-4.6529,-4.6525,-4.6607,-4.66,-4.6875,-4.691,-4.6654,-4.6657,-4.6659,0,-4.6225,-4.6286,-4.6296,-4.6327,-4.6338,-4.6389,-4.6417,-4.6383,-4.6415,-4.644,-4.6488,-4.6536,-4.6574,-4.6662,-4.6655,-4.6698,-4.6679,-4.6772,-4.6685,-4.6695,-4.6682,-4.668,-4.6686,-4.679,-4.6793,-4.6795,-4.6797,0,-4.6445,-4.6432,-4.6475,-4.6514,-4.6549,-4.6579,-4.6604,-4.6632,-4.6599,-4.6638,-4.6692,-4.6721,-4.6778,-4.6828,-4.6866,-4.6872,-4.6831,-4.6824,-4.6846,-4.6859,-4.6866,-4.6865,-4.6579,-4.6819,-4.6817,-4.6815,-4.6814,-4.6813,-4.6609,-4.6661,-4.6676,-4.6725,-4.674,-4.6765,-4.6812,-4.6807,-4.6852,-4.6896,-4.6873,-4.6936,-4.6952,-4.6999,-4.7012,-4.7061,-4.7024,-4.7055,-4.7063,-4.7071,-4.7083,-4.6857,-4.7067,-4.7067,-4.7066,-4.7066,-4.7065,0,-4.6829,-4.6835,-4.688,-4.6917,-4.6956,-4.6911,-4.6937,-4.6972,-4.7029,-4.7047,-4.7085,-4.7148,-4.7195,-4.7192,-4.7236,-4.7276,-4.7258,-4.7289,-4.7287,-4.7289,-4.7112,-4.709,-4.7303,-4.7303,-4.7303,-4.7303,-4.7303,-4.7303,-4.6947,-4.7033,-4.7022,-4.7115,-4.7121,-4.7182,-4.7201,-4.7223,-4.7238,-4.731,-4.7349,-4.7346,-4.7357,-4.7401,-4.7443,-4.7441,-4.746,-4.7499,-4.749,-4.7325,-4.7302,-4.7279,-4.7258,-4.7503,-4.7503,-4.7663,-4.7664,-4.7665]},{"header":{"parameterUnit":"m.s-1","parameterCategory":1,"la1":30.2991,"la2":30.254,"lo1":-89.0895,"lo2":-89.0444,"dy":0.0017,"dx":0.0017,"nx":28,"ny":28,"refTime":"2025-03-01T09:00:00:Z","depth":0,"parameterNumber":3,"parameterNumberName":"V-component_of_WINDS"},"data":[0,0,0,0,0,0,0,0,0,0,0,0,0,0,0,0,0,0,0,0,0,0,0,0,0,0,0,0,0,0,0,0,0,0,0,0,0,0,0,0,0,0,0,0,0,0,0,0,0,0,0,0,0,0,0,0,0,0,-4.7456,-4.7456,0,-4.7485,-4.7486,-4.7486,-4.7431,-4.7429,-4.7427,-4.7426,-4.7453,-4.7456,-4.7458,0,0,0,0,0,0,0,0,0,0,0,0,0,-4.7348,-4.7351,-4.7456,-4.7456,-4.7456,-4.7485,-4.7486,-4.7486,-4.7431,-4.7429,-4.7427,-4.7425,-4.7452,-4.7455,-4.7458,0,0,0,0,0,0,0,0,0,0,0,0,0,-4.7388,-4.7351,-4.7456,-4.7433,-4.7431,-4.7485,-4.7486,-4.7486,-4.7432,-4.7429,-4.7426,-4.7424,-4.7451,-4.7455,-4.7459,-4.7536,0,0,-4.747,-4.7471,0,0,0,0,0,0,0,0,-4.7386,-4.7392,-4.7436,-4.7434,-4.7432,-4.7452,-4.7458,-4.7503,-4.7432,-4.7431,-4.7426,-4.7422,-4.7455,-4.7458,-4.7469,-4.7537,-4.7538,-4.747,-4.7472,-4.7474,-4.7475,0,0,0,0,0,0,0,-4.7383,-4.739,-4.7467,-4.7436,-4.7434,-4.742,-4.7422,-4.7466,-4.7458,-4.7431,-4.7427,-4.7432,-4.7453,-4.7466,-4.747,-4.7538,-4.747,-4.7473,-4.7475,-4.7477,-4.767,-4.7673,0,0,0,0,0,0,-4.7384,-4.7389,-4.7466,-4.7468,-4.7402,-4.7424,-4.7427,-4.7448,-4.7457,-4.7456,-4.7434,-4.7429,-4.7461,-4.7465,-4.747,-4.7561,-4.7474,-4.7477,-4.7479,-4.7667,-4.7671,-4.7674,0,0,0,0,0,0,-4.7382,-4.7391,-4.7465,-4.7427,-4.7436,-4.7429,-4.7453,-4.745,-4.7463,-4.7459,-4.7457,-4.7449,-4.7459,-4.7465,-4.752,-4.7561,-4.7479,-4.7482,-4.7664,-4.7668,-4.7672,-4.7743,0,0,0,0,0,0,-4.7379,-4.7391,-4.7421,-4.7428,-4.7438,-4.7515,-4.7456,-4.7453,-4.747,-4.7463,-4.7473,-4.7472,-4.7457,-4.7515,-4.7523,-4.7565,-4.7485,-4.766,-4.7666,-4.7671,-4.7737,-4.775,-4.776,0,0,0,0,0,-4.7375,-4.7439,-4.7423,-4.7432,-4.7476,-4.7518,-4.7523,-4.7506,-4.7473,-4.7503,-4.75,-4.7471,-4.7555,-4.7521,-4.753,-4.7573,-4.7657,-4.7664,-4.767,-4.7732,-4.7747,-4.776,0,0,0,0,0,0,-4.7436,-4.744,-4.7422,-4.749,-4.7504,-4.7509,-4.7546,-4.7523,-4.7546,-4.7539,-4.7516,-4.7519,-4.7578,-4.7581,-4.7542,-4.7648,-4.76,-4.7609,-4.7644,-4.7658,-4.767,-4.7668,-4.7488,0,0,0,0,0,-4.7457,-4.7493,-4.7493,-4.7554,-4.7562,-4.7553,-4.757,-4.7556,-4.757,-4.7575,-4.7577,-4.759,-4.7619,-4.7639,-4.7665,-4.7737,-4.7738,-4.7771,-4.7783,-4.7792,-4.78,-4.7838,-4.7853,-4.7696,-4.7695,-4.7695,0,0,-4.7502,-4.7508,-4.7532,-4.7566,-4.7575,-4.7611,-4.7558,-4.7598,-4.7624,-4.7581,-4.7633,-4.7634,-4.7647,-4.7711,-4.7739,-4.7715,-4.7844,-4.78,-4.7808,-4.7811,-4.7846,-4.7861,-4.7874,-4.77,-4.7699,-4.7698,0,0,-4.7601,-4.761,-4.7661,-4.7672,-4.7687,-4.768,-4.7692,-4.77,-4.77,-4.7752,-4.772,-4.775,-4.7801,-4.7811,-4.7823,-4.7926,-4.79,-4.7936,-4.7996,-4.8033,-4.8045,-4.8056,-4.8093,-4.8107,-4.7943,-4.7944,-4.7944,0,-4.7655,-4.7709,-4.769,-4.7733,-4.7749,-4.7712,-4.7763,-4.7773,-4.7796,-4.7807,-4.778,-4.7843,-4.7849,-4.7915,-4.794,-4.7951,-4.7964,-4.7935,-4.8045,-4.8056,-4.8066,-4.8101,-4.8115,-4.7948,-4.7947,-4.7947,-4.7947,0,-4.7773,-4.7811,-4.7851,-4.7875,-4.7894,-4.7941,-4.7929,-4.7951,-4.7935,-4.7931,-4.7984,-4.799,-4.8017,-4.8031,-4.8015,-4.8094,-4.8079,-4.8049,-4.8001,-4.8085,-4.8118,-4.8131,-4.7954,-4.7952,-4.7951,-4.795,0,0,-4.7913,-4.7926,-4.7941,-4.7951,-4.7964,-4.7993,-4.8037,-4.8064,-4.8084,-4.81,-4.8137,-4.818,-4.8153,-4.8166,-4.8151,-4.8184,-4.8265,-4.815,-4.815,-4.8171,-4.8352,-4.8375,-4.8391,-4.8248,-4.825,-4.8252,-4.8351,0,-4.8012,-4.809,-4.8075,-4.815,-4.8185,-4.8149,-4.8188,-4.82,-4.8197,-4.8225,-4.8221,-4.8252,-4.8213,-4.8221,-4.8252,-4.8249,-4.8301,-4.8241,-4.8281,-4.8283,-4.828,-4.8408,-4.8432,-4.8526,-4.8364,-4.8366,-4.8367,0,-4.8139,-4.8161,-4.8241,-4.8249,-4.8262,-4.8298,-4.8321,-4.8348,-4.8361,-4.8356,-4.8371,-4.835,-4.8393,-4.8344,-4.8403,-4.8362,-4.8377,-4.8378,-4.8381,-4.8385,-4.8331,-4.8415,-4.8555,-4.8569,-4.8387,-4.8386,-4.8384,0,-4.8233,-4.8282,-4.8337,-4.8346,-4.8357,-4.8382,-4.8387,-4.8397,-4.8414,-4.8434,-4.8445,-4.847,-4.8484,-4.8503,-4.8488,-4.8454,-4.8549,-4.8499,-4.8546,-4.8547,-4.8568,-4.8567,-4.8713,-4.8577,-4.8577,-4.8577,-4.8576,0,-4.8345,-4.8396,-4.8379,-4.8413,-4.8467,-4.8448,-4.8502,-4.8503,-4.8512,-4.8544,-4.8514,-4.8545,-4.8523,-4.8552,-4.854,-4.8591,-4.8597,-4.8594,-4.859,-4.8597,-4.8598,-4.8607,-4.86,-4.858,-4.858,-4.8579,-4.8578,0,-4.846,-4.8451,-4.8508,-4.8513,-4.8515,-4.8556,-4.8559,-4.859,-4.8584,-4.8625,-4.8634,-4.8625,-4.8657,-4.8644,-4.8678,-4.867,-4.8735,-4.8722,-4.8731,-4.8728,-4.8776,-4.8772,-4.8933,-4.8954,-4.8804,-4.8806,-4.8807,0,-4.8533,-4.8571,-4.8581,-4.8601,-4.8608,-4.864,-4.8658,-4.864,-4.866,-4.8676,-4.8705,-4.8734,-4.8757,-4.8809,-4.8805,-4.8831,-4.8819,-4.8874,-4.8822,-4.8828,-4.882,-4.8818,-4.8822,-4.8884,-4.8886,-4.8887,-4.8888,0,-4.8664,-4.8657,-4.8685,-4.8711,-4.8733,-4.8752,-4.8768,-4.8786,-4.8769,-4.8792,-4.8825,-4.8842,-4.8877,-4.8906,-4.8929,-4.8933,-4.8908,-4.8904,-4.8917,-4.8924,-4.8928,-4.8927,-4.8759,-4.8901,-4.89,-4.8899,-4.8898,-4.8898,-4.876,-4.8792,-4.8804,-4.8835,-4.8846,-4.8862,-4.8891,-4.8889,-4.8916,-4.8944,-4.8931,-4.8969,-4.8979,-4.9007,-4.9014,-4.9043,-4.9021,-4.9039,-4.9044,-4.9048,-4.9055,-4.8923,-4.9047,-4.9046,-4.9046,-4.9046,-4.9045,0,-4.8889,-4.8895,-4.8924,-4.8948,-4.8973,-4.8948,-4.8964,-4.8986,-4.902,-4.9032,-4.9055,-4.9093,-4.9121,-4.9119,-4.9145,-4.9169,-4.9158,-4.9176,-4.9174,-4.9176,-4.9073,-4.906,-4.9184,-4.9184,-4.9184,-4.9184,-4.9184,-4.9184,-4.8959,-4.9012,-4.9007,-4.9065,-4.9069,-4.9107,-4.9119,-4.9133,-4.9143,-4.9186,-4.921,-4.9209,-4.9215,-4.9241,-4.9266,-4.9264,-4.9275,-4.9298,-4.9293,-4.9197,-4.9183,-4.917,-4.9157,-4.9301,-4.9301,-4.9393,-4.9394,-4.9395]}]]